Weather History for KIJX - January, 2014

Change the Weather History Date:

Tuesday, January 7, 2014

  Actual Average (KSPI) Record (KSPI)
Temperature  
Mean Temperature 4 °F 27 °F  
Max Temperature 15 °F 35 °F 70 °F (1907)
Min Temperature -7 °F 19 °F -19 °F (1912)
Degree Days  
Heating Degree Days 61 38  
Month to date heating degree days 266  
Since 1 July heating degree days 2406  
Cooling Degree Days 0 0  
Month to date cooling degree days 0  
Year to date cooling degree days 0  
Moisture  
Dew Point -6 °F    
Average Humidity 68    
Maximum Humidity 83    
Minimum Humidity 53    
Precipitation  
Precipitation 0.00 in 0.06 in 2.41 in (1937)
Month to date precipitation 0.47  
Year to date precipitation 0.47  
Snow  
Snow 0.00 in 0.20 in 5.40 in (1940)
Month to date snowfall 1.5  
Since 1 July snowfall 7.7  
Snow Depth -    
Sea Level Pressure  
Sea Level Pressure 30.30 in    
Wind  
Wind Speed 9 mph (South)    
Max Wind Speed 14 mph    
Max Gust Speed 18 mph    
Visibility 10 miles    
Events      
T = Trace of Precipitation, MM = Missing Value Source: NWS Daily Summary

Daily Weather History Graph

Daily Weather History Graph

Search for Another Location

Airport or City:

Trip Planner

Search our weather history database for the weather conditions in past years. The results will help you decide how hot, cold, wet, or windy it might be!

Date:

Astronomy

Jan. 07, 2014 Rise Set
Actual Time 7:22 AM CST 4:52 PM CST
Civil Twilight 6:52 AM CST 5:22 PM CST
Nautical Twilight 6:18 AM CST 5:56 PM CST
Astronomical Twilight 5:45 AM CST 6:28 PM CST
Moon 11:11 AM CST (1/7) No Moon Set
Length of Visible Light 10h 30m
Length of Day
9h 30m
Waxing Crescent, 46% of the Moon is Illuminated
Jan 7
Waxing Crescent
Jan 7
First Quarter
Jan 15
Full
Jan 23
Last Quarter
Jan 30
New

Hourly Weather History & Observations

Time (CST) Temp. Windchill Dew Point Humidity Pressure Visibility Wind Dir Wind Speed Gust Speed Precip Events Conditions
12:15 AM -7.6 °F -24.6 °F -15.9 °F 67% 30.41 in 10.0 mi SW 9.2 mph - N/A   Clear
12:35 AM -7.6 °F -24.6 °F -15.9 °F 67% 30.41 in 10.0 mi SW 9.2 mph - N/A   Clear
12:55 AM -7.2 °F -26.2 °F -15.7 °F 67% 30.40 in 10.0 mi SW 11.5 mph - N/A   Clear
1:15 AM -6.7 °F -24.5 °F -15.3 °F 66% 30.40 in 10.0 mi SW 10.4 mph - N/A   Clear
1:35 AM -6.7 °F -25.5 °F -15.0 °F 67% 30.41 in 10.0 mi SW 11.5 mph - N/A   Clear
1:55 AM -6.7 °F -23.5 °F -15.0 °F 67% 30.41 in 10.0 mi SW 9.2 mph - N/A   Clear
2:15 AM -7.2 °F -21.7 °F -15.3 °F 68% 30.40 in 10.0 mi SW 6.9 mph - N/A   Clear
2:35 AM -7.6 °F -23.4 °F -15.3 °F 69% 30.40 in 10.0 mi SSW 8.1 mph - N/A   Clear
2:55 AM -7.2 °F -24.2 °F -15.0 °F 69% 30.40 in 10.0 mi SSW 9.2 mph - N/A   Clear
3:15 AM -7.2 °F -26.2 °F -15.2 °F 68% 30.41 in 10.0 mi SSW 11.5 mph - N/A   Clear
3:35 AM -7.2 °F -24.2 °F -15.0 °F 69% 30.40 in 10.0 mi SW 9.2 mph - N/A   Clear
3:55 AM -6.7 °F -23.5 °F -14.8 °F 68% 30.40 in 10.0 mi SW 9.2 mph - N/A   Clear
4:15 AM -6.7 °F -24.5 °F -14.6 °F 68% 30.39 in 10.0 mi SSW 10.4 mph - N/A   Clear
4:35 AM -6.5 °F -22.1 °F -14.3 °F 69% 30.37 in 10.0 mi SSW 8.1 mph - N/A   Clear
4:55 AM -5.4 °F -21.9 °F -13.7 °F 67% 30.36 in 10.0 mi SSW 9.2 mph - N/A   Clear
5:15 AM -5.8 °F -23.4 °F -13.9 °F 68% 30.37 in 10.0 mi SW 10.4 mph - N/A   Clear
5:35 AM -5.8 °F -21.2 °F -14.1 °F 67% 30.37 in 10.0 mi SSW 8.1 mph - N/A   Clear
5:55 AM -5.4 °F -21.9 °F -13.9 °F 67% 30.38 in 10.0 mi SW 9.2 mph - N/A   Clear
6:15 AM -5.8 °F -22.4 °F -13.9 °F 68% 30.38 in 10.0 mi SSW 9.2 mph - N/A   Clear
6:35 AM -6.0 °F -20.1 °F -13.9 °F 69% 30.38 in 10.0 mi SSW 6.9 mph - N/A   Clear
6:55 AM -6.0 °F -20.1 °F -13.7 °F 69% 30.38 in 10.0 mi SSW 6.9 mph - N/A   Clear
7:15 AM -5.3 °F -22.8 °F -13.2 °F 69% 30.37 in 10.0 mi SSW 10.4 mph - N/A   Clear
7:35 AM -5.3 °F -22.8 °F -13.0 °F 69% 30.37 in 10.0 mi South 10.4 mph - N/A   Clear
7:55 AM -4.4 °F -19.5 °F -12.5 °F 68% 30.37 in 10.0 mi South 8.1 mph - N/A   Clear
8:15 AM -2.9 °F -19.8 °F -11.0 °F 68% 30.37 in 10.0 mi SSW 10.4 mph - N/A   Clear
8:35 AM -1.5 °F -17.1 °F -9.8 °F 68% 30.38 in 10.0 mi SSW 9.2 mph - N/A   Clear
8:55 AM -0.2 °F -17.4 °F -8.7 °F 67% 30.38 in 10.0 mi SSW 11.5 mph - N/A   Mostly Cloudy
9:15 AM 1.4 °F -16.1 °F -7.4 °F 67% 30.38 in 10.0 mi SSW 12.7 mph - N/A   Overcast
9:35 AM 3.2 °F -12.2 °F -6.2 °F 65% 30.37 in 10.0 mi SSW 10.4 mph - N/A   Overcast
9:55 AM 3.7 °F -13.2 °F -6.5 °F 62% 30.38 in 10.0 mi SSW 12.7 mph - N/A   Overcast
10:15 AM 5.0 °F -10.0 °F -5.3 °F 63% 30.37 in 10.0 mi SSW 10.4 mph - N/A   Overcast
10:35 AM 6.1 °F -5.6 °F -4.4 °F 62% 30.37 in 10.0 mi SSW 6.9 mph - N/A   Mostly Cloudy
10:55 AM 7.2 °F -6.4 °F -4.4 °F 59% 30.35 in 10.0 mi South 9.2 mph - N/A   Mostly Cloudy
11:15 AM 8.4 °F -4.9 °F -3.6 °F 58% 30.32 in 10.0 mi South 9.2 mph - N/A   Scattered Clouds
11:35 AM 9.3 °F -3.8 °F -3.1 °F 57% 30.30 in 10.0 mi South 9.2 mph - N/A   Scattered Clouds
11:55 AM 9.9 °F -4.0 °F -2.6 °F 57% 30.29 in 10.0 mi South 10.4 mph - N/A   Mostly Cloudy
12:15 PM 11.1 °F -0.6 °F -2.9 °F 53% 30.26 in 10.0 mi SSE 8.1 mph - N/A   Scattered Clouds
12:35 PM 11.1 °F -1.6 °F -1.3 °F 57% 30.24 in 10.0 mi SSE 9.2 mph - N/A   Scattered Clouds
12:55 PM 12.0 °F -1.3 °F -1.3 °F 55% 30.21 in 10.0 mi SE 10.4 mph - N/A   Scattered Clouds
1:15 PM 12.9 °F -2.2 °F 0.3 °F 57% 30.19 in 10.0 mi SE 13.8 mph - N/A   Scattered Clouds
1:35 PM 13.8 °F 2.7 °F 1.2 °F 57% 30.20 in 10.0 mi SE 8.1 mph 11.5 mph N/A   Scattered Clouds
1:55 PM 13.6 °F 0.7 °F -0.0 °F 55% 30.22 in 10.0 mi SE 10.4 mph - N/A   Scattered Clouds
2:15 PM 14.0 °F 1.2 °F 1.0 °F 56% 30.22 in 10.0 mi SE 10.4 mph - N/A   Scattered Clouds
2:35 PM 14.5 °F 1.9 °F 1.8 °F 57% 30.21 in 10.0 mi SE 10.4 mph - N/A   Scattered Clouds
2:55 PM 14.4 °F 2.4 °F 1.2 °F 56% 30.22 in 10.0 mi SSE 9.2 mph - N/A   Scattered Clouds
3:15 PM 15.3 °F 0.8 °F 1.9 °F 56% 30.22 in 10.0 mi SSE 13.8 mph - N/A   Mostly Cloudy
3:35 PM 14.9 °F 0.9 °F 2.1 °F 57% 30.21 in 10.0 mi SSE 12.7 mph 16.1 mph N/A   Mostly Cloudy
3:55 PM 14.9 °F 0.3 °F 2.5 °F 58% 30.20 in 10.0 mi SSE 13.8 mph - N/A   Overcast
4:15 PM 14.9 °F 1.6 °F 2.7 °F 58% 30.20 in 10.0 mi SSE 11.5 mph 18.4 mph N/A   Mostly Cloudy
4:35 PM 14.0 °F 2.0 °F 3.0 °F 62% 30.21 in 10.0 mi SE 9.2 mph - N/A   Mostly Cloudy
4:55 PM 13.1 °F 1.8 °F 2.7 °F 63% 30.21 in 10.0 mi SE 8.1 mph - N/A   Scattered Clouds
5:15 PM 12.6 °F 2.2 °F 2.7 °F 65% 30.22 in 10.0 mi SE 6.9 mph - N/A   Clear
5:35 PM 10.8 °F 1.2 °F 2.1 °F 68% 30.22 in 10.0 mi ESE 5.8 mph - N/A   Clear
5:55 PM 10.6 °F 2.5 °F 2.3 °F 69% 30.22 in 10.0 mi ESE 4.6 mph - N/A   Clear
6:15 PM 9.7 °F 1.4 °F 2.1 °F 71% 30.23 in 10.0 mi East 4.6 mph - N/A   Clear
6:35 PM 8.6 °F -1.3 °F 1.8 °F 74% 30.22 in 10.0 mi East 5.8 mph - N/A   Clear
6:55 PM 6.4 °F -5.2 °F 0.5 °F 77% 30.23 in 10.0 mi East 6.9 mph - N/A   Clear
7:15 PM 5.7 °F -4.8 °F 0.1 °F 78% 30.23 in 10.0 mi East 5.8 mph - N/A   Clear
7:35 PM 4.5 °F -7.6 °F -0.6 °F 80% 30.23 in 10.0 mi East 6.9 mph - N/A   Clear
7:55 PM 3.7 °F -8.4 °F -1.3 °F 80% 30.24 in 10.0 mi East 6.9 mph - N/A   Clear
8:15 PM 3.7 °F -9.6 °F -1.3 °F 80% 30.23 in 10.0 mi East 8.1 mph - N/A   Clear
8:35 PM 3.9 °F -8.2 °F -0.9 °F 80% 30.23 in 10.0 mi East 6.9 mph - N/A   Clear
8:55 PM 3.9 °F -9.4 °F -0.9 °F 80% 30.23 in 10.0 mi ENE 8.1 mph - N/A   Clear
9:15 PM 3.4 °F -8.9 °F -1.3 °F 81% 30.23 in 10.0 mi ENE 6.9 mph - N/A   Clear
9:35 PM 3.4 °F -8.9 °F -1.3 °F 81% 30.23 in 10.0 mi ENE 6.9 mph - N/A   Clear
9:55 PM 3.7 °F -7.1 °F -1.3 °F 80% 30.23 in 10.0 mi East 5.8 mph - N/A   Clear
10:15 PM 3.4 °F -7.5 °F -1.3 °F 81% 30.23 in 10.0 mi ENE 5.8 mph - N/A   Clear
10:35 PM 3.9 °F - -0.4 °F 82% 30.23 in 10.0 mi Calm Calm - N/A   Clear
10:55 PM 3.7 °F - -0.8 °F 82% 30.23 in 10.0 mi Calm Calm - N/A   Clear
11:15 PM 2.7 °F - -1.8 °F 81% 30.24 in 10.0 mi Calm Calm - N/A   Clear
11:35 PM 2.8 °F - -1.3 °F 83% 30.24 in 10.0 mi Calm Calm - N/A   Clear
11:55 PM 3.2 °F - -0.9 °F 83% 30.24 in 10.0 mi Calm Calm - N/A   Clear